Location: Newark
(32.9167°N, 112.9667°W)
Time: 07:57:24
(UTC+00:00)

Tiangong 2 - Visible Passes

Search period start: 21 March 2019 00:00
Search period end: 31 March 2019 00:00
Orbit: 379 x 390 km, 42.8° (Epoch: 21 March)

Date Brightness Start Highest point End Pass type
(mag) Time Alt. Az. Time Alt. Az. Time Alt. Az.
21 Mar 3.2 11:48:23 21° NNE 11:48:33 21° NNE 11:51:04 10° ENE visible
22 Mar 1.7 12:24:08 20° NW 12:26:03 52° NNE 12:29:10 10° ESE visible
23 Mar 3.6 11:27:46 22° ENE 11:27:46 22° ENE 11:29:20 10° E visible
23 Mar 1.8 13:00:17 10° WNW 13:03:13 35° SW 13:06:10 10° SSE visible
24 Mar 0.9 12:03:50 77° SSW 12:03:50 77° SSW 12:06:57 10° SE visible
25 Mar 2.8 12:40:04 16° WSW 12:40:48 17° SW 12:42:59 10° S visible
26 Mar 3.9 11:44:13 11° SSE 11:44:13 11° SSE 11:44:20 10° SSE visible
28 Mar 3.2 03:11:03 10° SSW 03:12:01 16° S 03:12:01 16° S visible
29 Mar 3.2 02:12:57 10° SSE 02:14:21 12° SE 02:15:44 10° ESE visible
29 Mar 3.7 03:47:38 10° WSW 03:48:34 18° WSW 03:48:34 18° WSW visible
30 Mar 1.2 02:48:09 10° SW 02:51:13 54° SSE 02:52:39 27° E visible
